WetterOnline ( http://www.wetteronline.de )

Wetter aktuell Altenbeken

Aktuelles Wetter: Bad Lippspringe (158m)

6-stündlich | Neueste Meldungen
Ortszeit Temperatur Wetter
Mi, 20.03. 19:00 10.5° C bedeckt
Mi, 20.03. 13:00 12.0° C wolkig
Mi, 20.03. 7:00 -1.6° C leicht bewölkt
Mi, 20.03. 1:00 -1.3° C wolkenlos
Di, 19.03. 19:00 4.4° C wolkenlos
Di, 19.03. 13:00 6.8° C wolkig
Di, 19.03. 7:00 0.6° C bedeckt
Di, 19.03. 1:00 -0.0° C wolkenlos
Ortszeit Temperatur Wetter
Do, 21.03. 0:30 4.9° C bedeckt
Do, 21.03. 0:20 4.9° C bedeckt
Do, 21.03. 0:10 4.3° C bedeckt
Do, 21.03. 0:00 4.1° C bewölkt
Mi, 20.03. 23:50 4.1° C bewölkt
Mi, 20.03. 23:40 3.8° C wolkig
Mi, 20.03. 23:30 3.9° C fast wolkenlos
Mi, 20.03. 23:00 4.2° C fast wolkenlos
Mi, 20.03. 22:30 5.4° C leicht bewölkt
Mi, 20.03. 22:00 7.6° C bewölkt
Mi, 20.03. 21:30 8.1° C bedeckt
Ortszeit Relative Feuchte Sichtweite
Mi, 20.03. 19:00 67% 45 km
Mi, 20.03. 13:00 51% >70 km
Mi, 20.03. 7:00 92% 9 km
Mi, 20.03. 1:00 90% 35 km
Di, 19.03. 19:00 66% 45 km
Di, 19.03. 13:00 53% 40 km
Di, 19.03. 7:00 92% 17 km
Di, 19.03. 1:00 91% 28 km
Ortszeit Relative Feuchte Sichtweite
Do, 21.03. 0:30 89% 30 km
Do, 21.03. 0:20 89% -
Do, 21.03. 0:10 91% -
Do, 21.03. 0:00 93% 35 km
Mi, 20.03. 23:50 93% -
Mi, 20.03. 23:40 91% -
Mi, 20.03. 23:30 91% 35 km
Mi, 20.03. 23:00 90% 40 km
Mi, 20.03. 22:30 86% 40 km
Mi, 20.03. 22:00 80% 45 km
Mi, 20.03. 21:30 79% 45 km
Ortszeit Niederschlagsmenge Niederschlagsart
Mi, 20.03. 19:00 0.0 l/m2 in 12 Std. -
Mi, 20.03. 13:00 0.0 l/m2 in 6 Std. -
Mi, 20.03. 7:00 0.0 l/m2 in 12 Std. -
Mi, 20.03. 1:00 0.0 l/m2 in 6 Std. -
Di, 19.03. 19:00 0.0 l/m2 in 12 Std. -
Di, 19.03. 13:00 0.0 l/m2 in 6 Std. -
Di, 19.03. 7:00 0.0 l/m2 in 12 Std. -
Di, 19.03. 1:00 0.0 l/m2 in 6 Std. -
Ortszeit Niederschlagsmenge Niederschlagsart
Do, 21.03. 0:30 0.0 l/m2 in 1 Std. -
Do, 21.03. 0:20 keine Meldung -
Do, 21.03. 0:10 keine Meldung -
Do, 21.03. 0:00 0.0 l/m2 in 1 Std. -
Mi, 20.03. 23:50 keine Meldung -
Mi, 20.03. 23:40 keine Meldung -
Mi, 20.03. 23:30 0.0 l/m2 in 1 Std. -
Mi, 20.03. 23:00 0.0 l/m2 in 1 Std. -
Mi, 20.03. 22:30 0.0 l/m2 in 1 Std. -
Mi, 20.03. 22:00 0.0 l/m2 in 1 Std. -
Mi, 20.03. 21:30 0.0 l/m2 in 1 Std. -
Ortszeit Stärke Spitze Richtung
km/h Bft. km/h Grad Sektor
Mi, 20.03. 19:00 7 2 25 230° SW
Mi, 20.03. 13:00 14 3 29 230° SW
Mi, 20.03. 7:00 4 1 7 80° O
Mi, 20.03. 1:00 4 1 11 10° N
Di, 19.03. 19:00 6 1 28 230° SW
Di, 19.03. 13:00 17 3 26 260° W
Di, 19.03. 7:00 4 1 11 230° SW
Di, 19.03. 1:00 9 2 22 130° SO
Ortszeit Stärke Spitze Richtung
km/h Bft. km/h Grad Sektor
Do, 21.03. 0:30 4 1 7 100° O
Do, 21.03. 0:20 4 1 - 100° O
Do, 21.03. 0:10 2 1 - 100° O
Do, 21.03. 0:00 6 1 7 130° SO
Mi, 20.03. 23:50 6 1 - 130° SO
Mi, 20.03. 23:40 4 1 - 70° O
Mi, 20.03. 23:30 4 1 7 120° SO
Mi, 20.03. 23:00 4 1 7 140° SO
Mi, 20.03. 22:30 0 0 7 - -
Mi, 20.03. 22:00 4 1 7 170° S
Mi, 20.03. 21:30 6 1 7 170° S
Ortszeit Untergrenze Bedeckung Gattung
total tief tief mittel hoch
Mi, 20.03. 19:00 1140 m 8/8 8/8 - - -
Mi, 20.03. 13:00 1200 m 6/8 2/8 - - -
Mi, 20.03. 7:00 7800 m 3/8 0/8 - - -
Mi, 20.03. 1:00 - 0/8 0/8 - - -
Di, 19.03. 19:00 - 0/8 0/8 - - -
Di, 19.03. 13:00 1050 m 6/8 6/8 - - -
Di, 19.03. 7:00 210 m 8/8 8/8 - - -
Di, 19.03. 1:00 - 0/8 0/8 - - -
Ortszeit Bedeckungsgrad in Achtel und Wolkenuntergrenze
Do, 21.03. 0:30 8(870m)
Do, 21.03. 0:20 8(870m)
Do, 21.03. 0:10 8(870m)
Do, 21.03. 0:00 7(870m)
Mi, 20.03. 23:50 7(870m)
Mi, 20.03. 23:40 6(870m)
Mi, 20.03. 23:30 1(900m)
Mi, 20.03. 23:00 2(900m)
Mi, 20.03. 22:30 3(1500m)
Mi, 20.03. 22:00 3(900m) 7(1500m)
Mi, 20.03. 21:30 7(990m) 8(1290m) 8(1500m)
Ortszeit Luftdruck NN (hPa) Tendenz (hPa in 3 Std.)
Mi, 20.03. 19:00 1034 0,0
Mi, 20.03. 13:00 1034 + 0,1
Mi, 20.03. 7:00 1033 + 0,5
Mi, 20.03. 1:00 1033 + 0,5
Di, 19.03. 19:00 1030 + 1,0
Di, 19.03. 13:00 1029 + 0,4
Di, 19.03. 7:00 1027 + 1,5
Di, 19.03. 1:00 1024 + 1,6
Ortszeit Luftdruck NN (hPa) Tendenz (hPa in 3 Std.)
Do, 21.03. 0:30 1035 + 0,4
Do, 21.03. 0:20 1035 keine Meldung
Do, 21.03. 0:10 1035 keine Meldung
Do, 21.03. 0:00 1035 + 0,2
Mi, 20.03. 23:50 1035 keine Meldung
Mi, 20.03. 23:40 1035 keine Meldung
Mi, 20.03. 23:30 1035 0,0
Mi, 20.03. 23:00 1035 + 0,2
Mi, 20.03. 22:30 1035 + 0,5
Mi, 20.03. 22:00 1035 + 0,7
Mi, 20.03. 21:30 1035 + 0,7
Ortszeit Schneehöhe (cm)
Mi, 20.03. 19:00 0
Mi, 20.03. 13:00 0
Mi, 20.03. 7:00 0
Mi, 20.03. 1:00 0
Di, 19.03. 19:00 0
Di, 19.03. 13:00 0
Di, 19.03. 7:00 0
Di, 19.03. 1:00 0
Ortszeit Schneehöhe (cm)
Do, 21.03. 0:30 0
Do, 21.03. 0:20 0
Do, 21.03. 0:10 0
Do, 21.03. 0:00 0
Mi, 20.03. 23:50 0
Mi, 20.03. 23:40 0
Mi, 20.03. 23:30 0
Mi, 20.03. 23:00 0
Mi, 20.03. 22:30 0
Mi, 20.03. 22:00 0
Mi, 20.03. 21:30 0
Link zu dieser Seite / Seite empfehlen

Das Wetter in ...